P/2019 Y3 ( Catalina )

Japanese version
Home page
Updated on January 10, 2020

---------------------------------------------------------------------

* Profile

Discovery Date December 17, 2019
Magnitude 18.6 mag
Discoverer Kacper W. Wierzchos (Catalina Sky Survey)

* Orbital Elements

Epoch 2019 Dec. 23.0 TT = JDT 2458840.5                                         
T 2019 Dec. 13.46043 TT                                 Bell                    
q   0.9120012            (2000.0)            P               Q                  
n   0.18978012     Peri.    2.26788     -0.78189486     -0.56125163             
a   2.9989477      Node   139.38253     +0.56520630     -0.82186484             
e   0.6958929      Incl.   24.63488     +0.26302523     +0.09764623             
P   5.19                                                                        
From 84 observations 2019 Dec. 17-2020 Jan. 8, mean residual 0".9.              

* Magnitudes Graph

        m1 = 18.5 + 5 log d + 10.0 log r

---------------------------------------------------------------------

The orbital elements are published on M.P.E.C. 2020-A109.
The magnitudes graphs are made with Comet for Windows.

---------------------------------------------------------------------

Copyright(C) Seiichi Yoshida (comet@aerith.net). All rights reserved.